Salida, CO

7:32 AM MDT on July 25, 2017 (GMT -0600)
Salida

Weather History for KANK - February, 2012

Change the Weather History Date:

Thursday, February 23, 2012

  Actual Average (KGUC) Record (KGUC)
Temperature  
Mean Temperature 34 °F -  
Max Temperature 44 °F 30 °F 42 °F (2001)
Min Temperature 22 °F 8 °F -11 °F (2006)
Degree Days  
Heating Degree Days 31    
Moisture  
Dew Point 15 °F    
Average Humidity 50    
Maximum Humidity 92    
Minimum Humidity 25    
Precipitation  
Precipitation 0.00 in - - ()
Sea Level Pressure  
Sea Level Pressure 29.79 in    
Wind  
Wind Speed 21 mph (WNW)    
Max Wind Speed 37 mph    
Max Gust Speed 50 mph    
Visibility 9 miles    
Events      
Averages and records for this station are not official NWS values.
T = Trace of Precipitation, MM = Missing Value Source: NWS Daily Summary

Daily Weather History Graph

Daily Weather History Graph

Search for Another Location

Airport or City:

Trip Planner

Search our weather history database for the weather conditions in past years. The results will help you decide how hot, cold, wet, or windy it might be!

Date:

Astronomy

Feb. 23, 2012 Rise Set
Actual Time 6:45 AM MST 5:50 PM MST
Civil Twilight 6:18 AM MST 6:17 PM MST
Nautical Twilight 5:47 AM MST 6:48 PM MST
Astronomical Twilight 5:16 AM MST 7:18 PM MST
Moon 7:15 AM MST (2/23) 7:56 PM MST (2/23)
Length of Visible Light 11h 58m
Length of Day
11h 05m
Waxing Crescent, 3% of the Moon is Illuminated
Feb 23
Waxing Crescent
Feb 29
First Quarter
Mar 8
Full
Mar 14
Last Quarter
Mar 22
New

Hourly Weather History & Observations

Time (MST) Temp. Windchill Dew Point Humidity Pressure Visibility Wind Dir Wind Speed Gust Speed Precip Events Conditions
12:15 AM 43.7 °F 33.3 °F 21.0 °F 41% 29.71 in 10.0 mi West 31.1 mph 40.3 mph N/A   Scattered Clouds
12:35 AM 43.9 °F 34.1 °F 20.5 °F 39% 29.72 in 10.0 mi West 27.6 mph 41.4 mph N/A   Scattered Clouds
12:55 AM 43.7 °F 33.9 °F 20.3 °F 39% 29.70 in 10.0 mi West 27.6 mph 35.7 mph N/A   Scattered Clouds
1:15 AM 43.9 °F 33.9 °F 19.6 °F 38% 29.70 in 10.0 mi West 28.8 mph 40.3 mph N/A   Scattered Clouds
1:35 AM 44.4 °F 33.5 °F 19.8 °F 37% 29.70 in 10.0 mi West 36.8 mph 49.5 mph N/A   Mostly Cloudy
1:55 AM 43.9 °F 32.9 °F 20.8 °F 40% 29.70 in 10.0 mi West 35.7 mph 46.0 mph N/A   Overcast
2:15 AM 43.7 °F 33.9 °F 21.2 °F 41% 29.68 in 10.0 mi West 27.6 mph 42.6 mph N/A   Overcast
2:35 AM 43.5 °F 34.3 °F 20.7 °F 40% 29.67 in 10.0 mi West 24.2 mph 42.6 mph N/A   Overcast
2:55 AM 43.2 °F 34.5 °F 21.2 °F 42% 29.67 in 10.0 mi West 20.7 mph 38.0 mph N/A   Overcast
3:15 AM 42.6 °F 33.3 °F 22.6 °F 45% 29.68 in 10.0 mi West 23.0 mph 31.1 mph N/A   Overcast
3:35 AM 41.9 °F 33.1 °F 24.1 °F 49% 29.67 in 10.0 mi West 19.6 mph 33.4 mph N/A   Overcast
3:55 AM 41.2 °F 30.9 °F 24.8 °F 52% 29.66 in 10.0 mi West 25.3 mph 33.4 mph N/A   Overcast
4:15 AM 40.6 °F 31.4 °F 25.3 °F 54% 29.65 in 10.0 mi West 19.6 mph 33.4 mph N/A   Overcast
4:35 AM 40.3 °F 30.4 °F 25.7 °F 56% 29.65 in 10.0 mi West 21.9 mph 28.8 mph N/A   Overcast
4:55 AM 39.4 °F 31.8 °F 27.3 °F 62% 29.64 in 10.0 mi West 12.7 mph 27.6 mph N/A   Overcast
5:15 AM 39.2 °F 29.8 °F 27.1 °F 62% 29.64 in 10.0 mi West 18.4 mph 26.5 mph N/A   Overcast
5:35 AM 37.6 °F 29.1 °F 29.5 °F 73% 29.64 in 5.0 mi West 13.8 mph 29.9 mph N/A   Overcast
5:55 AM 37.4 °F 28.2 °F 29.5 °F 73% 29.63 in 7.0 mi WSW 16.1 mph 29.9 mph N/A   Overcast
6:15 AM 36.3 °F 28.0 °F 30.6 °F 80% 29.63 in 4.0 mi WSW 12.7 mph 23.0 mph N/A   Overcast
6:35 AM 34.9 °F 26.2 °F 31.3 °F 87% 29.64 in 2.5 mi West 12.7 mph 18.4 mph N/A   Overcast
6:55 AM 35.2 °F 27.1 °F 31.1 °F 85% 29.64 in 4.0 mi WSW 11.5 mph 20.7 mph N/A   Overcast
7:15 AM 34.7 °F 22.5 °F 31.1 °F 87% 29.67 in 2.5 mi NW 24.2 mph 29.9 mph N/A   Overcast
7:35 AM 29.8 °F 16.6 °F 26.6 °F 88% 29.71 in 1.5 mi NW 21.9 mph 35.7 mph N/A   Overcast
7:55 AM 27.7 °F 16.6 °F 25.7 °F 92% 29.73 in 0.2 mi NNW 13.8 mph 29.9 mph N/A   Overcast
8:15 AM 27.5 °F 16.3 °F 24.1 °F 87% 29.73 in 1.5 mi NNW 13.8 mph 23.0 mph N/A   Overcast
8:35 AM 28.4 °F 18.5 °F 21.7 °F 76% 29.75 in 10.0 mi WNW 11.5 mph 18.4 mph N/A   Overcast
8:55 AM 29.1 °F 17.5 °F 20.8 °F 71% 29.76 in 10.0 mi NNW 16.1 mph 26.5 mph N/A   Overcast
9:15 AM 29.1 °F 18.9 °F 21.4 °F 73% 29.77 in 10.0 mi NW 12.7 mph - N/A   Overcast
9:35 AM 29.3 °F 22.3 °F 20.5 °F 70% 29.78 in 10.0 mi NW 6.9 mph - N/A   Overcast
9:55 AM 30.2 °F 22.6 °F 20.5 °F 67% 29.80 in 10.0 mi North 8.1 mph 16.1 mph N/A   Overcast
10:15 AM 30.4 °F 22.9 °F 19.2 °F 63% 29.80 in 10.0 mi NNW 8.1 mph - N/A   Overcast
10:35 AM 31.1 °F 21.4 °F 19.0 °F 61% 29.82 in 10.0 mi NW 12.7 mph 17.3 mph N/A   Overcast
10:55 AM 29.3 °F 17.0 °F 14.7 °F 55% 29.84 in 10.0 mi NNW 18.4 mph 27.6 mph N/A   Mostly Cloudy
11:15 AM 29.7 °F 19.6 °F 14.0 °F 52% 29.84 in 10.0 mi NW 12.7 mph 27.6 mph N/A   Scattered Clouds
11:35 AM 32.0 °F 24.8 °F 13.1 °F 46% 29.84 in 10.0 mi WNW 8.1 mph 21.9 mph N/A   Mostly Cloudy
11:55 AM 31.1 °F 18.6 °F 9.7 °F 41% 29.83 in 10.0 mi NNW 20.7 mph 28.8 mph N/A   Overcast
12:15 PM 32.7 °F 24.5 °F 10.2 °F 39% 29.85 in 10.0 mi WNW 10.4 mph 27.6 mph N/A   Overcast
12:35 PM 32.0 °F 22.5 °F 7.5 °F 36% 29.85 in 10.0 mi NW 12.7 mph 23.0 mph N/A   Mostly Cloudy
12:55 PM 32.0 °F 22.5 °F 1.2 °F 27% 29.85 in 10.0 mi NNW 12.7 mph 25.3 mph N/A   Mostly Cloudy
1:15 PM 32.7 °F 23.4 °F 3.7 °F 29% 29.86 in 10.0 mi NNW 12.7 mph 19.6 mph N/A   Overcast
1:35 PM 31.1 °F 21.4 °F 0.1 °F 27% 29.86 in 10.0 mi North 12.7 mph 21.9 mph N/A   Overcast
1:55 PM 31.8 °F 19.9 °F 0.5 °F 26% 29.87 in 10.0 mi NNW 19.6 mph 26.5 mph N/A   Overcast
2:15 PM 30.6 °F 22.4 °F 0.9 °F 28% 29.88 in 10.0 mi WNW 9.2 mph 25.3 mph N/A   Scattered Clouds
2:35 PM 31.1 °F 19.7 °F 2.8 °F 30% 29.89 in 10.0 mi NNW 17.3 mph 26.5 mph N/A   Clear
2:55 PM 30.7 °F 19.2 °F 2.8 °F 31% 29.90 in 10.0 mi North 17.3 mph 27.6 mph N/A   Mostly Cloudy
3:35 PM 29.3 °F 23.2 °F -2.4 °F 26% 29.91 in 10.0 mi NW 5.8 mph 17.3 mph N/A   Overcast
3:55 PM 29.1 °F 18.4 °F -0.2 °F 28% 29.91 in 10.0 mi North 13.8 mph 25.3 mph N/A   Overcast
4:15 PM 29.1 °F 19.4 °F -0.6 °F 28% 29.92 in 10.0 mi NNW 11.5 mph 17.3 mph N/A   Overcast
4:35 PM 28.9 °F 16.9 °F -3.1 °F 25% 29.94 in 10.0 mi NW 17.3 mph 25.3 mph N/A   Overcast
5:15 PM 27.3 °F 15.6 °F 4.1 °F 37% 29.97 in 10.0 mi NNW 15.0 mph 26.5 mph N/A   Overcast
5:35 PM 26.2 °F 15.2 °F 3.7 °F 38% 29.98 in 10.0 mi NW 12.7 mph 19.6 mph N/A   Scattered Clouds
5:55 PM 25.7 °F 17.1 °F 3.6 °F 39% 30.00 in 10.0 mi NW 8.1 mph 20.7 mph N/A   Mostly Cloudy
6:15 PM 25.5 °F 14.9 °F 3.7 °F 39% 30.01 in 10.0 mi NW 11.5 mph 16.1 mph N/A   Overcast
6:55 PM 25.2 °F 13.3 °F 1.2 °F 36% 30.05 in 10.0 mi NW 13.8 mph 21.9 mph N/A   Overcast
7:15 PM 24.1 °F 16.0 °F 3.0 °F 40% 30.06 in 10.0 mi NNW 6.9 mph - N/A   Overcast
7:35 PM 22.8 °F 13.6 °F 5.4 °F 47% 30.07 in 10.0 mi NW 8.1 mph - N/A   Overcast
7:55 PM 22.1 °F 13.7 °F 6.1 °F 50% 30.07 in 10.0 mi NW 6.9 mph - N/A   Mostly Cloudy
8:15 PM 22.1 °F 12.0 °F 5.0 °F 48% 30.08 in 10.0 mi WNW 9.2 mph - N/A   Scattered Clouds
8:35 PM 21.2 °F 13.6 °F 5.9 °F 52% 30.09 in 3.0 mi WSW 5.8 mph - N/A   Overcast
8:55 PM 20.7 °F 13.0 °F 5.0 °F 51% 30.10 in 7.0 mi NW 5.8 mph - N/A   Overcast
9:15 PM 21.2 °F 16.4 °F 4.8 °F 49% 30.11 in 10.0 mi NNW 3.5 mph - N/A   Mostly Cloudy
9:35 PM 20.1 °F 15.2 °F 7.5 °F 58% 30.11 in 10.0 mi NE 3.5 mph - N/A   Overcast
9:55 PM 18.3 °F 13.1 °F 5.0 °F 56% 30.12 in 7.0 mi WSW 3.5 mph - N/A   Mostly Cloudy
10:15 PM 18.0 °F - 5.4 °F 58% 30.13 in 7.0 mi Calm Calm - N/A   Scattered Clouds
10:35 PM 16.7 °F - 5.5 °F 62% 30.13 in 1.8 mi Calm Calm - N/A   Scattered Clouds
10:55 PM 14.9 °F 4.0 °F 2.5 °F 58% 30.14 in 4.0 mi WSW 8.1 mph - N/A   Clear
11:15 PM 15.3 °F 4.4 °F -0.0 °F 51% 30.14 in 10.0 mi WSW 8.1 mph - N/A   Clear
11:35 PM 15.3 °F 6.6 °F -0.9 °F 49% 30.15 in 10.0 mi WSW 5.8 mph - N/A   Clear
11:55 PM 15.8 °F 7.2 °F -3.1 °F 43% 30.15 in 10.0 mi West 5.8 mph - N/A   Clear